YAOGAN-31 D

Satellite information

Favourite Embed

Satellite Type and Status

PAYLOADIN ORBIT

Key statistics

Satellite YAOGAN-31 D at a glance.

Uptime

1674

Days in orbit

Revolutions

≈ 13.5

Per day

Orbit

LEO

Low Earth Orbit

Inclination

63.4

Latest

Satellite identification and parameters

Extended collection of information and parameters for YAOGAN-31 D.

Object identification

Identified? True

Debris? False

Object name: YAOGAN-31 D

International designator: 2021-007A

Object number (NORAD): 47532

Object ID (CCSDS): 47532

Country: PEOPLES REPUBLIC OF CHINA (PRC)

Current information (Y/N): Y

RCS size: LARGE

Orbital parameters

Period: 107.03 minutes

Inclination: 63.4049 deg

SMA: 7467.312 km

Apoapsis: 1201.111 km

Periapsis: 977.243 km

RAAN: 171.39 deg

Eccentricy: 0.01498983

Argument of periapsis: 359.4064 deg

Mean anomaly: 0.6762 deg

Mean motion: 13.45415165 rev/day

Mean motion (dot): -0.0000003 rev/day2

B* drag term: 0.000095533563 1/REarth

Two-line elements (TLE)

Creation date: Aug. 30, 2025, 3:38 a.m.

Reference frame: TEME

Reference center: EARTH

Epoch: Aug. 29, 2025, 11:39 p.m. UTC

TLE line 0: 0 YAOGAN-31 D

TLE line 1: 1 47532U 21007A 25241.98603815 -.00000030 00000-0 95534-4 0 9999

TLE line 2: 2 47532 63.4049 171.3900 0149898 359.4064 0.6762 13.45415165225050

Live tracking on map

Real-time ground track for satellite YAOGAN-31 D.

In-orbit conjunctions

There are no conjunctions computed for YAOGAN-31 D, at the moment. Check back to stay up to date, as we update our databases every day.

Go to all conjunctions

Associated space launch

YAOGAN-31 D was lifted into orbit during the mission ‘Long March 4C | Yaogan-31-02’, on board a Long March 4C space rocket.

The launch took place on Jan. 29, 2021, 4:47 a.m. from Launch Area 4 (SLS-2 / 603).

For more information about the launch, click the button.

Launch to space Long March 4C | Yaogan-31-02
Long March 4C | Yaogan-31-02

Agency: N/A

Status: Launch Successful

Launch date: Jan. 29, 2021, 4:47 a.m. UTC

Rocket: Long March 4C

Launch pad: Launch Area 4 (SLS-2 / 603)

Location: Jiuquan Satellite Launch Center, People's Republic of China

...

Latest news about this satellite

News about space launch
Long March 4C lofts three Yaogan Weixing-31 satellites

China launched its second orbital mission in 2021, orbiting three new satellites from the Jiuquan Satellite Launch Center on Friday. The launch took place from Launch Pad 94 of the LC43 launch complex using the Long March-4C (Y31) rocket. The Yaogan Weix...

News about space launch
China launches military spy satellite trio into orbit

China launched three Yaogan military satellites Friday on a Long March 4C rocket, adding to a fleet of spacecraft independent analysts believe are designed to spy on naval forces.


Newsletter sign-up

Weekly statistics, charts and insights to help you stay on top of the space industry.